Location: Chevoux
(46.3801°N, 4.9476°E)
Time: 22:40:01
(UTC+00:00)

Cosmos 2298 Rocket - Pass Details

Date: 28 January 2021
Orbit: 775 x 784 km, 74.0° (Epoch: 03 March)

Event Time Altitude Azimuth Distance (km) Brightness Sun altitude
Rises 19:04:19 0° 205° (SSW) 3,250 7.6 -25.1°
Reaches altitude 10° 19:06:41 10° 207° (SSW) 2,328 6.8 -25.5°
Maximum altitude 19:11:59 74° 292° (WNW) 816 4.1 -26.4°
Enters shadow 19:13:34 46° 6° (N) 1,048 4.6 -26.7°
